Skip Page Navigation
NASA JPL Caltech
NASA Logo - Jet Propulsion Laboratory + View the NASA Portal
+ Near-Earth Object (NEO) Program
Search JPL
JPL Home Earth Solar System Stars & Galaxies Technology
JPL Solar System Dynamics
BODIES ORBITS EPHEMERIDES TOOLS PHYSICAL DATA DISCOVERY FAQ SITE MAP
JPL Small-Body Database Browser
Search: [ help ]  
(2004 FU162)
Classification: Aten [NEO]          SPK-ID: 3249978
Ephemeris | Orbit Diagram | Orbital Elements | Physical Parameters | Close-Approach Data ]

[ show orbit diagram ]
Orbital Elements at Epoch 2453100.5 (2004-Apr-05.0) TDB
Reference: JPL 7 (heliocentric ecliptic J2000)
 Element Value Uncertainty (1-sigma)   Units 
e .3921703243835123 0.046898  
a .8268676032636632 0.13626 AU
q .502594667069535 0.051085 AU
i 4.164495837827167 3.6759 deg
node 191.2486062265901 0.11266 deg
peri 139.7831084933175 27.322 deg
M 262.6684337939823 46.848 deg
tp 2453174.751221539878
(2004-Jun-18.25122154)
17.482 JED
period 274.6327917684678
0.75
67.885
0.1859
d
yr
n 1.310841278937666 0.32402 deg/d
Q 1.151140539457791 0.1897 AU
  Orbit Determination Parameters
   # obs. used (total)      4  
   first obs. used      2004-03-31  
   last obs. used      2004-03-31  
   planetary ephem.      DE405  
   SB-pert. ephem.      SB405-CPV-2  
   condition code      9  
   fit RMS      .12125  
   data source      ORB  
   producer      Otto Matic  
   solution date      2011-Sep-14 19:55:21  

Additional Information
 Earth MOID = 7.22648E-5 AU 
 T_jup = 7.024 
[ show covariance matrix ]

Ephemeris | Orbit Diagram | Orbital Elements | Physical Parameters | Close-Approach Data ]

Physical Parameter Table
Parameter Symbol Value Units Sigma Reference Notes
absolute magnitude H 28.677 mag .33732 7 autocmod 2.5a

[ hide close-approach data ]
Close-Approach Data   ...sorted by Date/Time (TDB)
Date/Time (TDB) Time Uncertainty
(days_HH:MM)
Body Nominal Distance (AU) Minimum Distance (AU) Maximum Distance (AU) V-relative (km/s) V-infinity (km/s) JD (TDB) Time Uncertainty (minutes) Semi-major axis (km) Semi-minor axis (km) range-LOV angle (deg) N-sigma BP Orbit Ref. Reference Modified
2004-Mar-31 12:41 01:01 Moon 0.00256565375962478 0.00244700434655175 0.00265621391725415 12.0702882115338 12.069229878944 2453096.028997716 61.5863460667688 7809.22548069362 765.456559171412 -41.0334502920074 322.806034897316 T 7 CATAB v2.0c-linF95 2011-Sep-15 09:17:30 2011-Sep-15 12:55
2004-Mar-31 15:34 00:34 Earth 8.63217684386401e-05 2.21580425151558e-05 0.000217760379914268 13.3906107488508 10.8431912711278 2453096.149232686 34.5938718045409 6199.89192140234 218.630006392613 -25.8824717728523 0.935546713555431 T 7 CATAB v2.0c-linF95 2011-Sep-15 09:17:30 2011-Sep-15 12:55
Ephemeris | Orbit Diagram | Orbital Elements | Physical Parameters | Close-Approach Data ]
ABOUT SSD CREDITS/AWARDS PRIVACY/COPYRIGHT GLOSSARY LINKS
FirstGov 2013-Jun-19 14:13 UT
(server date/time)  
NASA Home Page
Site Manager:   Donald K. Yeomans
Webmaster  Alan B. Chamberlin